IQ8KL-13 Weather Reports


time (UTC)temp
F
wind
direction
speed
knots
gust
knots
rain 1hr
in
rain 24hr
in
rain mn
in
humidity
%
barometer
mb
20260906073249 85 0.0 0.0 0.00 0.00 0.00 1017.7
20260906071247 87 0.0 0.0 0.00 0.00 0.00 1017.6
20260906065246 93 0.0 0.0 0.00 0.00 0.00 1017.3
20260906063245 93 0.0 0.0 0.00 0.00 0.00 1017.2
20260906061244 93 0.0 0.0 0.00 0.00 0.00 1017.2
20260906055242 92 0.0 0.0 0.00 0.00 0.00 1017.1
20260906053241 92 0.0 0.0 0.00 0.00 0.00 1016.9
20260906051240 92 0.0 0.0 0.00 0.00 0.00 1016.7
20260906045239 92 0.0 0.0 0.00 0.00 0.00 1016.8
20260906043237 92 0.0 0.0 0.00 0.00 0.00 1016.7
20260906041236 92 0.0 0.0 0.00 0.00 0.00 1016.7
20260906035235 92 0.0 0.0 0.00 0.00 0.00 1016.6
20260906033233 92 0.0 0.0 0.00 0.00 0.00 1016.4
20260906031232 92 0.0 0.0 0.00 0.00 0.00 1016.3
20260906025231 92 0.0 0.0 0.00 0.00 0.00 1016.4
20260906023230 94 0.0 0.0 0.00 0.00 0.00 1016.6
20260906021228 94 0.0 0.0 0.00 0.00 0.00 1016.4
20260906015227 94 0.0 0.0 0.00 0.00 0.00 1016.5
20260906013226 94 0.0 0.0 0.00 0.00 0.00 1016.5
20260906011225 93 0.0 0.0 0.00 0.00 0.00 1016.6
20260906005223 93 0.0 0.0 0.00 0.00 0.00 1016.5
20260906003222 92 0.0 0.0 0.00 0.00 0.00 1016.5
20260906001221 91 0.0 0.0 0.00 0.00 0.00 1016.7
20260905235219 87 0.0 0.0 0.00 0.00 0.00 1016.7
20260905233218 84 0.0 0.0 0.00 0.00 0.00 1017.0
20260905231217 85 0.0 0.0 0.00 0.00 0.00 1017.1
20260905225216 85 0.0 0.0 0.00 0.00 0.00 1017.1
20260905223215 85 0.0 0.0 0.00 0.00 0.00 1017.2
20260905223111 85 0.0 0.0 0.00 0.00 0.00 1017.2
20260905221801 89 0.0 0.0 0.00 0.00 0.00 1017.1
20260905220059 94 0.0 0.0 0.00 0.00 0.00 1017.2
20260905214055 94 0.0 0.0 0.00 0.00 0.00 1017.3
20260905212051 94 0.0 0.0 0.00 0.00 0.00 1017.3
20260905210047 94 0.0 0.0 0.00 0.00 0.00 1017.4
20260905204043 94 0.0 0.0 0.00 0.00 0.00 1017.4
20260905202039 94 0.0 0.0 0.00 0.00 0.00 1017.4
20260905200035 94 0.0 0.0 0.00 0.00 0.00 1017.4
20260905194031 94 0.0 0.0 0.00 0.00 0.00 1017.3
20260905192027 94 0.0 0.0 0.00 0.00 0.00 1017.3
20260905190023 94 0.0 0.0 0.00 0.00 0.00 1017.1
20260905184018 92 0.0 0.0 0.00 0.00 0.00 1016.9
20260905182016 91 0.0 0.0 0.00 0.00 0.00 1016.8
20260905180015 91 0.0 0.0 0.00 0.00 0.00 1016.7
20260905174014 89 0.0 0.0 0.00 0.00 0.00 1016.6
20260905172012 84 0.0 0.0 0.00 0.00 0.00 1016.5
20260905171554 84 0.0 0.0 0.00 0.00 0.00 1016.5
20260905170815 85 0.0 0.0 0.00 0.00 0.00 1016.5
20260905164814 95 0.0 0.0 0.00 0.00 0.00 1016.3
20260905164101 96 0.0 0.0 0.00 0.00 0.00 1016.2
20260905162100 96 0.0 0.0 0.00 0.00 0.00 1016.3
20260905160058 96 0.0 0.0 0.00 0.00 0.00 1016.3
20260905154057 95 0.0 0.0 0.00 0.00 0.00 1016.3
20260905152056 94 0.0 0.0 0.00 0.00 0.00 1016.3
20260905150055 91 0.0 0.0 0.00 0.00 0.00 1016.2
20260905144053 87 0.0 0.0 0.00 0.00 0.00 1016.2
20260905142052 79 0.0 0.0 0.00 0.00 0.00 1016.3
20260905133947 87 0.0 0.0 0.00 0.00 0.00 1016.4
20260905133513 84 0.0 0.0 0.00 0.00 0.00 1016.6
20260905131512 83 0.0 0.0 0.00 0.00 0.00 1016.7
20260905125511 86 0.0 0.0 0.00 0.00 0.00 1016.8
20260905123510 92 0.0 0.0 0.00 0.00 0.00 1016.9
20260905122419 96 0.0 0.0 0.00 0.00 0.00 1016.9
20260905120416 96 0.0 0.0 0.00 0.00 0.00 1017.1
20260905114412 95 0.0 0.0 0.00 0.00 0.00 1017.2
20260905112408 95 0.0 0.0 0.00 0.00 0.00 1017.2
20260905110405 95 0.0 0.0 0.00 0.00 0.00 1017.2
20260905104401 95 0.0 0.0 0.00 0.00 0.00 1017.2
20260905102357 95 0.0 0.0 0.00 0.00 0.00 1017.2
20260905100354 94 0.0 0.0 0.00 0.00 0.00 1017.2
20260905094350 92 0.0 0.0 0.00 0.00 0.00 1017.3
20260905092347 89 0.0 0.0 0.00 0.00 0.00 1017.3
20260905090346 94 0.0 0.0 0.00 0.00 0.00 1017.4
20260905084344 92 0.0 0.0 0.00 0.00 0.00 1017.4
20260905082343 91 0.0 0.0 0.00 0.00 0.00 1017.3
20260905080342 91 0.0 0.0 0.00 0.00 0.00 1017.2